Location: Beddau
(51.5575°N, 3.3561°W)
Time: 03:09:13
(UTC+00:00)

Cosmos 2366 rocket - Pass Details

Date: 03 March 2021
Orbit: 954 x 997 km, 82.9° (Epoch: 13 April)

Event Time Altitude Azimuth Distance (km) Brightness Sun altitude
Rises 20:06:48 0° 184° (S) 3,684 6.9 -20.7°
Reaches altitude 10° 20:09:18 10° 183° (S) 2,745 6.2 -21.1°
Maximum altitude 20:15:36 81° 98° (E) 1,013 3.9 -22.0°
Drops below altitude 10° 20:22:00 10° 12° (NNE) 2,779 6.5 -22.9°
Sets 20:24:33 0° 11° (NNE) 3,733 7.2 -23.3°
